When you browse on this site, cookies collect data to enhance your experience and personalize the content and advertising you see.
Visit our Privacy Policy to learn more. By continuing to use the site, you agree to this use of cookies and data.
  • In Austria
  • List of Countries
  • For 7 days
  • Water Temperature
  • Satellite Maps
  • Weather Map
  • News
  • Weather Widgets
  • user-avatar
    Login

    Hourly Weather Tanger

    Today, 18 December, Tuesday

    Time Temperature Precipitation Wind Pressure Humidity
    00:00 +12°C° 0 mm 5 mps 768 mmHg 84%
    01:00 +12°C° 0 mm 5 mps 768 mmHg 83%
    02:00 +12°C° 0 mm 5 mps 767 mmHg 82%
    03:00 +12°C° 0 mm 5 mps 767 mmHg 82%
    04:00 +12°C° 0 mm 5 mps 767 mmHg 82%
    05:00 +12°C° 0 mm 5 mps 767 mmHg 82%
    06:00 +12°C° 0 mm 4 mps 766 mmHg 82%
    07:00 +13°C° 0 mm 4 mps 767 mmHg 81%
    08:00 +14°C° 0 mm 4 mps 767 mmHg 79%
    09:00 +14°C° 0 mm 4 mps 767 mmHg 77%
    10:00 +17°C° 0 mm 4 mps 767 mmHg 71%
    11:00 +19°C° 0 mm 3 mps 767 mmHg 65%
    12:00 +20°C° 0 mm 3 mps 767 mmHg 59%
    13:00 +20°C° 0 mm 3 mps 766 mmHg 58%
    14:00 +21°C° 0 mm 3 mps 766 mmHg 58%
    15:00 +21°C° 0 mm 3 mps 766 mmHg 57%
    16:00 +19°C° 0 mm 2 mps 766 mmHg 65%
    17:00 +17°C° 0 mm 2 mps 766 mmHg 73%
    18:00 +16°C° 0 mm 2 mps 766 mmHg 81%
    19:00 +16°C° 0 mm 2 mps 766 mmHg 80%
    20:00 +15°C° 0 mm 2 mps 767 mmHg 80%
    21:00 +15°C° 0 mm 2 mps 767 mmHg 79%
    22:00 +14°C° 0 mm 3 mps 767 mmHg 77%
    23:00 +14°C° 0 mm 3 mps 767 mmHg 75%

    Tomorrow, 19 December, Wednesday

    Time Temperature Precipitation Wind Pressure Humidity
    00:00 +14°C° 0 mm 4 mps 767 mmHg 74%
    01:00 +14°C° 0 mm 4 mps 766 mmHg 74%
    02:00 +14°C° 0 mm 4 mps 766 mmHg 74%
    03:00 +14°C° 0 mm 4 mps 766 mmHg 74%
    04:00 +14°C° 0.1 mm 5 mps 766 mmHg 75%
    05:00 +14°C° 0.1 mm 5 mps 766 mmHg 76%
    06:00 +14°C° 0.1 mm 5 mps 766 mmHg 76%
    07:00 +14°C° 0.2 mm 5 mps 767 mmHg 76%
    08:00 +15°C° 0.2 mm 4 mps 767 mmHg 75%
    09:00 +15°C° 0.2 mm 4 mps 768 mmHg 75%
    10:00 +15°C° 0.2 mm 4 mps 768 mmHg 76%
    11:00 +17°C° 0.2 mm 4 mps 768 mmHg 77%
    12:00 +17°C° 0.2 mm 4 mps 769 mmHg 78%
    13:00 +17°C° 0.1 mm 3 mps 768 mmHg 77%
    14:00 +16°C° 0.1 mm 3 mps 768 mmHg 76%
    15:00 +16°C° 0.1 mm 3 mps 767 mmHg 75%
    16:00 +16°C° 0 mm 3 mps 768 mmHg 76%
    17:00 +14°C° 0 mm 3 mps 768 mmHg 77%
    18:00 +13°C° 0 mm 3 mps 768 mmHg 78%
    19:00 +13°C° 0 mm 3 mps 768 mmHg 78%
    20:00 +13°C° 0 mm 3 mps 768 mmHg 78%
    21:00 +13°C° 0 mm 3 mps 769 mmHg 77%
    22:00 +12°C° 0 mm 3 mps 769 mmHg 76%
    23:00 +12°C° 0 mm 3 mps 769 mmHg 76%

    Day after tomorrow, 20 December, Thursday

    Time Temperature Precipitation Wind Pressure Humidity
    00:00 +12°C° 0 mm 3 mps 769 mmHg 75%
    01:00 +12°C° 0 mm 3 mps 769 mmHg 75%
    02:00 +12°C° 0 mm 3 mps 769 mmHg 76%
    03:00 +12°C° 0 mm 3 mps 769 mmHg 76%
    04:00 +11°C° 0 mm 3 mps 769 mmHg 76%
    05:00 +11°C° 0 mm 3 mps 769 mmHg 75%
    06:00 +11°C° 0 mm 3 mps 769 mmHg 75%
    07:00 +12°C° 0 mm 3 mps 769 mmHg 73%
    08:00 +13°C° 0 mm 3 mps 770 mmHg 71%
    09:00 +13°C° 0 mm 3 mps 770 mmHg 69%
    10:00 +16°C° 0 mm 3 mps 770 mmHg 64%
    11:00 +17°C° 0 mm 3 mps 770 mmHg 59%
    12:00 +18°C° 0 mm 3 mps 770 mmHg 54%
    13:00 +18°C° 0 mm 3 mps 769 mmHg 55%
    14:00 +18°C° 0 mm 3 mps 769 mmHg 56%
    15:00 +18°C° 0 mm 3 mps 769 mmHg 56%
    16:00 +17°C° 0 mm 3 mps 769 mmHg 62%
    17:00 +16°C° 0 mm 3 mps 769 mmHg 67%
    18:00 +13°C° 0 mm 3 mps 770 mmHg 73%
    19:00 +13°C° 0 mm 3 mps 770 mmHg 74%
    20:00 +13°C° 0 mm 3 mps 770 mmHg 74%
    21:00 +12°C° 0 mm 3 mps 771 mmHg 75%
    22:00 +12°C° 0 mm 3 mps 771 mmHg 75%
    23:00 +12°C° 0 mm 3 mps 771 mmHg 75%

    21 December, Friday

    Time Temperature Precipitation Wind Pressure Humidity
    00:00 +12°C° 0 mm 3 mps 771 mmHg 75%
    01:00 +12°C° 0 mm 3 mps 770 mmHg 75%
    02:00 +12°C° 0 mm 4 mps 770 mmHg 75%
    03:00 +11°C° 0 mm 4 mps 770 mmHg 75%
    04:00 +11°C° 0 mm 4 mps 770 mmHg 75%
    05:00 +11°C° 0 mm 4 mps 770 mmHg 76%
    06:00 +10°C° 0 mm 5 mps 770 mmHg 76%
    07:00 +12°C° 0 mm 5 mps 770 mmHg 75%
    08:00 +13°C° 0 mm 5 mps 771 mmHg 74%
    09:00 +13°C° 0 mm 5 mps 771 mmHg 73%
    10:00 +15°C° 0 mm 6 mps 771 mmHg 68%
    11:00 +17°C° 0 mm 6 mps 771 mmHg 63%
    12:00 +19°C° 0 mm 6 mps 771 mmHg 58%
    13:00 +19°C° 0 mm 6 mps 771 mmHg 58%
    14:00 +19°C° 0 mm 6 mps 770 mmHg 57%
    15:00 +20°C° 0 mm 6 mps 770 mmHg 57%
    16:00 +17°C° 0 mm 6 mps 770 mmHg 64%
    17:00 +15°C° 0 mm 6 mps 770 mmHg 70%
    18:00 +14°C° 0 mm 6 mps 770 mmHg 77%
    19:00 +13°C° 0 mm 6 mps 771 mmHg 77%
    20:00 +13°C° 0 mm 6 mps 771 mmHg 77%
    21:00 +11°C° 0 mm 6 mps 771 mmHg 76%
    22:00 +11°C° 0 mm 6 mps 771 mmHg 76%
    23:00 +11°C° 0 mm 6 mps 770 mmHg 75%

    22 December, Saturday

    Time Temperature Precipitation Wind Pressure Humidity
    00:00 +12°C° 0 mm 5 mps 770 mmHg 74%
    01:00 +12°C° 0 mm 5 mps 770 mmHg 74%
    02:00 +12°C° 0 mm 5 mps 770 mmHg 74%
    03:00 +12°C° 0 mm 5 mps 769 mmHg 74%
    04:00 +12°C° 0 mm 5 mps 769 mmHg 74%
    05:00 +12°C° 0 mm 5 mps 769 mmHg 74%
    06:00 +10°C° 0 mm 5 mps 769 mmHg 74%
    07:00 +12°C° 0 mm 5 mps 769 mmHg 73%
    08:00 +13°C° 0 mm 4 mps 770 mmHg 71%
    09:00 +14°C° 0 mm 4 mps 770 mmHg 70%
    10:00 +15°C° 0 mm 4 mps 770 mmHg 65%
    11:00 +18°C° 0 mm 4 mps 770 mmHg 60%
    12:00 +20°C° 0 mm 4 mps 769 mmHg 56%
    13:00 +20°C° 0 mm 4 mps 769 mmHg 56%
    14:00 +20°C° 0 mm 4 mps 768 mmHg 57%
    15:00 +21°C° 0 mm 4 mps 768 mmHg 58%
    16:00 +19°C° 0 mm 4 mps 768 mmHg 65%
    17:00 +17°C° 0 mm 4 mps 768 mmHg 72%
    18:00 +14°C° 0 mm 4 mps 768 mmHg 79%
    19:00 +14°C° 0 mm 4 mps 768 mmHg 79%
    20:00 +14°C° 0 mm 4 mps 769 mmHg 79%
    21:00 +13°C° 0 mm 4 mps 769 mmHg 80%
    22:00 +13°C° 0 mm 4 mps 769 mmHg 78%
    23:00 +13°C° 0 mm 4 mps 769 mmHg 77%

    23 December, Sunday

    Time Temperature Precipitation Wind Pressure Humidity
    00:00 +13°C° 0 mm 4 mps 769 mmHg 76%
    01:00 +13°C° 0 mm 4 mps 768 mmHg 75%
    02:00 +13°C° 0 mm 4 mps 768 mmHg 74%
    03:00 +13°C° 0 mm 3 mps 768 mmHg 73%
    04:00 +13°C° 0 mm 3 mps 768 mmHg 72%
    05:00 +12°C° 0 mm 3 mps 768 mmHg 71%
    06:00 +12°C° 0 mm 3 mps 768 mmHg 70%
    07:00 +13°C° 0 mm 3 mps 768 mmHg 69%
    08:00 +14°C° 0 mm 3 mps 768 mmHg 68%
    09:00 +16°C° 0 mm 3 mps 769 mmHg 66%
    10:00 +17°C° 0 mm 3 mps 768 mmHg 63%
    11:00 +19°C° 0 mm 3 mps 768 mmHg 60%
    12:00 +20°C° 0 mm 3 mps 768 mmHg 56%
    13:00 +20°C° 0 mm 3 mps 768 mmHg 57%
    14:00 +21°C° 0 mm 3 mps 767 mmHg 58%
    15:00 +21°C° 0 mm 3 mps 767 mmHg 59%
    16:00 +19°C° 0 mm 3 mps 767 mmHg 66%
    17:00 +17°C° 0 mm 3 mps 767 mmHg 73%
    18:00 +16°C° 0 mm 3 mps 767 mmHg 80%
    19:00 +14°C° 0 mm 3 mps 767 mmHg 80%
    20:00 +14°C° 0 mm 4 mps 767 mmHg 81%
    21:00 +13°C° 0 mm 4 mps 767 mmHg 81%
    22:00 +13°C° 0 mm 4 mps 767 mmHg 80%
    23:00 +13°C° 0 mm 4 mps 767 mmHg 79%
    Show more